EW4320 Weather Reports


time (UTC)temp
C
wind
direction
speed
KPH
gust
KPH
rain 1hr
cm
rain 24hr
cm
rain mn
cm
humidity
%
barometer
mb
20260508030004 6 141 0.0 3.2 0.00 0.00 0.00 90 1015.3
20260508025715 6 141 0.0 3.2 0.00 0.00 0.00 90 1015.3
20260508025003 6 141 0.0 3.2 0.00 0.00 0.00 90 1015.3
20260508024716 6 0 0.0 0.0 0.00 0.00 0.00 90 1015.3
20260508024215 6 0 0.0 0.0 0.00 0.00 0.00 90 1015.4
20260508023503 6 0 0.0 0.0 0.00 0.00 0.00 89 1015.4
20260508023003 6 0 0.0 0.0 0.00 0.00 0.00 90 1015.4
20260508022503 6 0 0.0 0.0 0.00 0.00 0.00 89 1015.3
20260508022003 7 0 0.0 0.0 0.00 0.00 0.00 89 1015.3
20260508021503 7 0 0.0 0.0 0.00 0.00 0.00 89 1015.3
20260508021003 7 141 0.0 4.8 0.00 0.00 0.00 89 1015.3
20260508020715 7 141 0.0 4.8 0.00 0.00 0.00 89 1015.3
20260508020004 7 0 0.0 0.0 0.00 0.00 0.00 89 1015.3
20260508015504 7 0 0.0 0.0 0.00 0.00 0.00 89 1015.2
20260508015003 7 141 0.0 3.2 0.00 0.00 0.00 90 1015.2
20260508014504 8 141 0.0 3.2 0.00 0.00 0.00 90 1015.2
20260508014004 8 141 0.0 3.2 0.00 0.00 0.00 90 1015.2
20260508013503 8 141 0.0 3.2 0.00 0.00 0.00 90 1015.2
20260508013005 8 141 0.0 1.6 0.00 0.00 0.00 90 1015.2
20260508012503 8 0 0.0 0.0 0.00 0.00 0.00 89 1015.2
20260508012004 8 0 0.0 0.0 0.00 0.00 0.00 89 1015.2
20260508011503 8 0 0.0 0.0 0.00 0.00 0.00 89 1015.2
20260508011005 8 0 0.0 0.0 0.00 0.00 0.00 89 1015.2
20260508010503 8 141 0.0 3.2 0.00 0.00 0.00 89 1015.2
20260508010003 8 141 0.0 3.2 0.00 0.00 0.00 89 1015.2
20260508005504 8 141 0.0 4.8 0.00 0.00 0.00 89 1015.2
20260508005004 8 141 0.0 4.8 0.00 0.00 0.00 89 1015.2
20260508004503 8 141 0.0 3.2 0.00 0.00 0.00 89 1015.2
20260508004215 8 141 0.0 3.2 0.00 0.00 0.00 89 1015.2
20260508003504 8 0 0.0 0.0 0.00 0.00 0.00 89 1015.2
20260508003003 8 0 0.0 0.0 0.00 0.00 0.00 89 1015.2
20260508002503 8 0 0.0 0.0 0.00 0.00 0.00 89 1015.2
20260508002005 8 141 0.0 3.2 0.00 0.00 0.00 89 1015.2
20260508001504 8 141 1.6 3.2 0.00 0.00 0.00 89 1015.2
20260508001003 8 141 0.0 3.2 0.00 0.00 0.00 88 1015.3
20260508000504 8 141 0.0 3.2 0.00 0.00 0.00 88 1015.3
20260508000013 8 141 0.0 1.6 0.00 0.00 0.00 88 1015.3
20260507235504 8 141 0.0 3.2 0.00 0.00 0.00 88 1015.5
20260507235003 8 141 1.6 4.8 0.00 0.00 0.00 88 1015.5
20260507234503 8 141 1.6 4.8 0.00 0.00 0.00 88 1015.5
20260507234003 8 141 1.6 4.8 0.00 0.00 0.00 88 1015.6
20260507233503 8 141 1.6 4.8 0.00 0.00 0.00 88 1015.6
20260507233003 8 141 1.6 4.8 0.00 0.00 0.00 88 1015.6
20260507232715 8 141 0.0 4.8 0.00 0.00 0.00 87 1015.7
20260507232003 8 141 1.6 3.2 0.00 0.00 0.00 87 1015.7
20260507231503 8 141 1.6 3.2 0.00 0.00 0.00 87 1015.7
20260507231004 8 141 0.0 1.6 0.00 0.00 0.00 87 1015.7
20260507230503 8 141 0.0 3.2 0.00 0.00 0.00 87 1015.7
20260507230214 8 141 0.0 3.2 0.00 0.00 0.00 87 1015.7
20260507225504 8 141 0.0 3.2 0.00 0.00 0.00 86 1015.7
20260507225216 8 141 0.0 3.2 0.00 0.00 0.00 86 1015.7
20260507224503 8 141 0.0 3.2 0.00 0.00 0.00 86 1015.7
20260507224004 8 141 0.0 3.2 0.00 0.00 0.00 86 1015.7
20260507223503 8 0 0.0 0.0 0.00 0.00 0.00 86 1015.7
20260507223003 8 0 0.0 0.0 0.00 0.00 0.00 86 1015.7
20260507222503 8 141 0.0 1.6 0.00 0.00 0.00 86 1015.7
20260507222004 8 141 0.0 3.2 0.00 0.00 0.00 85 1015.7
20260507221716 8 141 0.0 3.2 0.00 0.00 0.00 85 1015.7
20260507221003 8 141 0.0 3.2 0.00 0.00 0.00 85 1015.7
20260507220504 8 141 0.0 1.6 0.00 0.00 0.00 84 1015.7
20260507220003 8 141 0.0 1.6 0.00 0.00 0.00 84 1015.7
20260507215504 8 141 0.0 3.2 0.00 0.00 0.00 84 1015.7
20260507215004 8 143 1.6 4.8 0.00 0.00 0.00 84 1015.7
20260507214504 8 143 1.6 4.8 0.00 0.00 0.00 83 1015.7
20260507214003 8 143 1.6 4.8 0.00 0.00 0.00 83 1015.7
20260507213504 8 130 1.6 4.8 0.00 0.00 0.00 83 1015.7
20260507213005 8 113 1.6 3.2 0.00 0.00 0.00 83 1015.7
20260507212716 8 113 0.0 3.2 0.00 0.00 0.00 82 1015.6
20260507212005 8 113 0.0 3.2 0.00 0.00 0.00 81 1015.6
20260507211717 8 113 0.0 3.2 0.00 0.00 0.00 81 1015.6
20260507211004 8 113 0.0 3.2 0.00 0.00 0.00 80 1015.5
20260507210504 8 113 0.0 3.2 0.00 0.00 0.00 80 1015.5
20260507210003 8 115 0.0 4.8 0.00 0.00 0.00 80 1015.5
20260507205503 8 115 1.6 4.8 0.00 0.00 0.00 80 1015.6
20260507205003 8 114 0.0 3.2 0.00 0.00 0.00 79 1015.6
20260507204503 9 114 1.6 3.2 0.00 0.00 0.00 79 1015.6
20260507204218 9 111 1.6 4.8 0.00 0.00 0.00 79 1015.3
20260507203504 9 116 3.2 9.7 0.00 0.00 0.00 79 1015.3
20260507203005 9 123 3.2 9.7 0.00 0.00 0.00 78 1015.3
20260507202504 10 120 3.2 4.8 0.00 0.00 0.00 78 1015.2
20260507202003 10 115 3.2 4.8 0.00 0.00 0.00 77 1015.2
20260507201503 10 118 3.2 4.8 0.00 0.00 0.00 77 1015.2
20260507201003 10 130 3.2 8.0 0.00 0.00 0.00 77 1015.0
20260507200504 10 128 4.8 9.7 0.00 0.00 0.00 76 1015.0
20260507200003 10 115 4.8 9.7 0.00 0.00 0.00 76 1015.0
20260507195503 10 109 4.8 9.7 0.00 0.00 0.00 75 1014.7
20260507195004 11 110 4.8 9.7 0.00 0.00 0.00 75 1014.7
20260507194715 11 113 4.8 11.3 0.00 0.00 0.00 74 1014.7
20260507194004 11 118 4.8 11.3 0.00 0.00 0.00 74 1014.7
20260507193504 11 124 3.2 9.7 0.00 0.00 0.00 73 1014.7
20260507193004 11 127 4.8 16.1 0.00 0.00 0.00 73 1014.7
20260507192717 11 127 6.4 17.7 0.00 0.00 0.00 72 1014.7
20260507192004 11 124 8.0 17.7 0.00 0.00 0.00 72 1014.7
20260507191504 11 127 6.4 20.9 0.00 0.00 0.00 71 1014.7
20260507191003 12 121 6.4 20.9 0.00 0.00 0.00 71 1014.6
20260507190714 12 119 6.4 14.5 0.00 0.00 0.00 71 1014.6
20260507190004 12 121 8.0 17.7 0.00 0.00 0.00 70 1014.6
20260507185503 12 119 8.0 19.3 0.00 0.00 0.00 69 1014.6
20260507185218 12 122 9.7 19.3 0.00 0.00 0.00 69 1014.6
20260507184503 12 123 9.7 24.1 0.00 0.00 0.00 68 1014.6
20260507184004 12 117 8.0 19.3 0.00 0.00 0.00 69 1014.5
20260507183503 12 111 8.0 19.3 0.00 0.00 0.00 68 1014.5
20260507183215 12 108 6.4 14.5 0.00 0.00 0.00 68 1014.5
20260507182505 12 111 6.4 17.7 0.00 0.00 0.00 68 1014.3
20260507182003 12 121 6.4 17.7 0.00 0.00 0.00 68 1014.3
20260507181503 12 122 8.0 17.7 0.00 0.00 0.00 68 1014.3
20260507181004 12 115 8.0 17.7 0.00 0.00 0.00 68 1014.2
20260507180503 12 114 9.7 19.3 0.00 0.00 0.00 68 1014.2
20260507180218 12 115 9.7 19.3 0.00 0.00 0.00 68 1014.2
20260507175503 12 113 11.3 19.3 0.00 0.00 0.00 68 1014.2
20260507175003 13 115 9.7 19.3 0.00 0.00 0.00 67 1014.2
20260507174504 13 114 8.0 17.7 0.00 0.00 0.00 67 1014.2
20260507174004 13 120 8.0 19.3 0.00 0.00 0.00 65 1014.1
20260507173503 13 133 6.4 19.3 0.00 0.00 0.00 64 1014.1
20260507173003 13 124 8.0 17.7 0.00 0.00 0.00 64 1014.1
20260507172503 13 119 9.7 19.3 0.00 0.00 0.00 64 1014.1
20260507172217 13 121 9.7 19.3 0.00 0.00 0.00 64 1014.1
20260507171503 13 117 11.3 19.3 0.00 0.00 0.00 63 1014.1
20260507171004 13 115 9.7 19.3 0.00 0.00 0.00 63 1014.1
20260507170503 13 117 8.0 20.9 0.00 0.00 0.00 64 1014.1
20260507170005 13 135 8.0 20.9 0.00 0.00 0.00 63 1014.1
20260507165503 13 134 8.0 17.7 0.00 0.00 0.00 63 1014.2
20260507165004 13 112 8.0 20.9 0.00 0.00 0.00 63 1014.2
20260507164503 13 109 9.7 20.9 0.00 0.00 0.00 63 1014.2
20260507164215 13 110 11.3 20.9 0.00 0.00 0.00 63 1014.2
20260507163503 13 119 11.3 22.5 0.00 0.00 0.00 63 1014.2
20260507163003 13 122 9.7 22.5 0.00 0.00 0.00 62 1014.2
20260507162504 13 118 9.7 20.9 0.00 0.00 0.00 62 1014.3
20260507162004 13 120 11.3 20.9 0.00 0.00 0.00 62 1014.3
20260507161503 13 118 11.3 19.3 0.00 0.00 0.00 62 1014.3
20260507161003 13 113 9.7 19.3 0.00 0.00 0.00 63 1014.3
20260507160504 13 107 9.7 17.7 0.00 0.00 0.00 64 1014.3
20260507160003 13 100 8.0 17.7 0.00 0.00 0.00 63 1014.3
20260507155504 13 101 8.0 22.5 0.00 0.00 0.00 63 1014.5
20260507155004 13 110 9.7 22.5 0.00 0.00 0.00 64 1014.5
20260507154504 13 116 8.0 17.7 0.00 0.00 0.00 65 1014.5
20260507154216 13 111 8.0 16.1 0.00 0.00 0.00 65 1014.4
20260507153504 13 106 4.8 14.5 0.00 0.00 0.00 65 1014.4
20260507153217 13 120 4.8 14.5 0.00 0.00 0.00 64 1014.4
20260507152504 13 124 6.4 14.5 0.00 0.00 0.00 64 1014.4
20260507152003 13 135 6.4 14.5 0.00 0.00 0.00 64 1014.4
20260507151504 13 135 4.8 9.7 0.00 0.00 0.00 62 1014.4
20260507151004 13 118 4.8 9.7 0.00 0.00 0.00 62 1014.5
20260507150503 13 89 4.8 11.3 0.00 0.00 0.00 62 1014.5
20260507150003 13 94 6.4 14.5 0.00 0.00 0.00 62 1014.5
20260507145504 13 98 6.4 14.5 0.00 0.00 0.00 63 1014.5
20260507145003 13 88 4.8 14.5 0.00 0.00 0.00 62 1014.5
20260507144505 13 82 6.4 14.5 0.00 0.00 0.00 64 1014.5
20260507144216 13 83 6.4 14.5 0.00 0.00 0.00 63 1014.6
20260507143503 13 90 4.8 11.3 0.00 0.00 0.00 62 1014.6
20260507143004 13 88 6.4 11.3 0.00 0.00 0.00 62 1014.6
20260507142503 13 84 8.0 17.7 0.00 0.00 0.00 62 1014.7
20260507142003 13 81 6.4 17.7 0.00 0.00 0.00 62 1014.7
20260507141503 13 87 4.8 11.3 0.00 0.00 0.00 63 1014.7
20260507141006 13 85 6.4 11.3 0.00 0.00 0.00 63 1014.7
20260507140717 13 72 4.8 14.5 0.00 0.00 0.00 65 1014.7
20260507140006 13 70 6.4 14.5 0.00 0.00 0.00 64 1014.7
20260507135718 13 80 6.4 14.5 0.00 0.00 0.00 64 1014.8
20260507135216 13 86 6.4 14.5 0.00 0.00 0.00 67 1014.8
20260507134504 13 80 6.4 16.1 0.00 0.00 0.00 67 1014.8
20260507134003 13 77 6.4 17.7 0.00 0.00 0.00 65 1015.0
20260507133504 13 79 6.4 17.7 0.00 0.00 0.00 64 1015.0
20260507133003 13 87 6.4 17.7 0.00 0.00 0.00 63 1015.0
20260507132503 13 91 4.8 9.7 0.00 0.00 0.00 65 1015.1
20260507132003 13 76 3.2 9.7 0.00 0.00 0.00 67 1015.1
20260507131503 12 72 3.2 8.0 0.00 0.00 0.00 68 1015.1
20260507131005 12 73 4.8 9.7 0.00 0.00 0.00 67 1015.1
20260507130503 12 77 4.8 9.7 0.00 0.00 0.00 69 1015.1
20260507130005 12 95 4.8 8.0 0.00 0.00 0.00 68 1015.1
20260507125714 12 97 3.2 8.0 0.00 0.00 0.00 69 1015.2
20260507125004 12 77 3.2 9.7 0.00 0.00 0.00 68 1015.2
20260507124503 12 61 3.2 9.7 0.00 0.00 0.00 67 1015.2
20260507124004 12 40 3.2 8.0 0.00 0.00 0.00 67 1015.2
20260507123503 12 50 3.2 8.0 0.00 0.00 0.00 67 1015.2
20260507123005 12 69 3.2 8.0 0.00 0.00 0.00 66 1015.2
20260507122717 12 67 3.2 8.0 0.00 0.00 0.00 66 1015.2
20260507122003 12 54 3.2 9.7 0.00 0.00 0.00 66 1015.2
20260507121503 12 71 4.8 9.7 0.00 0.00 0.00 68 1015.2
20260507121216 12 75 4.8 9.7 0.00 0.00 0.00 68 1015.2
20260507120503 12 70 4.8 9.7 0.00 0.00 0.00 71 1015.2
20260507120004 11 75 4.8 9.7 0.00 0.00 0.00 70 1015.2
20260507115503 11 63 4.8 9.7 0.00 0.00 0.00 71 1015.4
20260507115004 12 51 3.2 8.0 0.00 0.00 0.00 71 1015.4
20260507114503 11 48 3.2 6.4 0.00 0.00 0.00 72 1015.4
20260507114004 11 52 1.6 4.8 0.00 0.00 0.00 73 1015.4
20260507113503 11 62 3.2 8.0 0.00 0.00 0.00 72 1015.4
20260507113003 11 51 3.2 9.7 0.00 0.00 0.00 72 1015.4
20260507112717 11 57 3.2 9.7 0.00 0.00 0.00 72 1015.5
20260507112003 11 58 3.2 6.4 0.00 0.03 0.00 72 1015.5
20260507111504 11 52 1.6 4.8 0.00 0.03 0.00 73 1015.5
20260507111216 11 43 1.6 4.8 0.00 0.03 0.00 74 1015.6
20260507110503 11 16 1.6 4.8 0.00 0.03 0.00 74 1015.6
20260507110004 11 23 1.6 4.8 0.00 0.03 0.00 74 1015.6
20260507105504 11 27 1.6 4.8 0.00 0.03 0.00 74 1015.6
20260507105218 11 34 1.6 4.8 0.00 0.03 0.00 74 1015.6
20260507104503 11 49 1.6 4.8 0.00 0.03 0.00 74 1015.6
20260507104003 11 52 1.6 4.8 0.00 0.03 0.00 74 1015.6
20260507103503 11 56 0.0 1.6 0.00 0.03 0.00 74 1015.6
20260507103003 11 59 0.0 1.6 0.00 0.03 0.00 74 1015.6
20260507102504 11 59 0.0 1.6 0.00 0.03 0.00 75 1015.6
20260507102006 11 59 0.0 3.2 0.00 0.03 0.00 75 1015.6
20260507101504 11 66 1.6 4.8 0.00 0.03 0.00 75 1015.6
20260507101004 11 63 1.6 4.8 0.00 0.03 0.00 76 1015.6
20260507100503 10 58 3.2 4.8 0.00 0.03 0.00 76 1015.6
20260507100218 10 55 1.6 4.8 0.00 0.03 0.00 75 1015.6
20260507095716 10 5 0.0 4.8 0.00 0.03 0.00 75 1015.6
20260507095003 11 360 0.0 3.2 0.00 0.03 0.00 75 1015.6
20260507094503 11 359 1.6 4.8 0.00 0.03 0.00 75 1015.6
20260507094004 11 316 1.6 4.8 0.00 0.03 0.00 75 1015.6
20260507093503 11 209 1.6 3.2 0.00 0.03 0.00 75 1015.6
20260507093003 11 202 1.6 4.8 0.00 0.03 0.00 75 1015.6
20260507092503 11 198 1.6 4.8 0.00 0.03 0.00 75 1015.5
20260507092003 11 202 1.6 8.0 0.00 0.03 0.00 74 1015.5
20260507091504 11 209 1.6 8.0 0.00 0.03 0.00 74 1015.5
20260507091212 11 214 1.6 4.8 0.00 0.03 0.00 74 1015.4
20260507090505 11 210 1.6 6.4 0.00 0.03 0.00 74 1015.4
20260507090005 11 193 3.2 8.0 0.00 0.03 0.00 74 1015.4
20260507085505 11 171 1.6 8.0 0.00 0.03 0.00 74 1015.3
20260507085003 11 164 1.6 4.8 0.00 0.03 0.00 74 1015.3
20260507084504 11 206 3.2 8.0 0.00 0.03 0.00 74 1015.3
20260507084215 11 211 3.2 8.0 0.00 0.03 0.00 74 1015.5
20260507083713 11 198 4.8 9.7 0.00 0.03 0.00 76 1015.5
20260507083005 10 167 3.2 8.0 0.00 0.03 0.00 79 1015.5
20260507082504 10 155 1.6 8.0 0.00 0.03 0.00 79 1015.5
20260507082005 10 156 3.2 9.7 0.00 0.03 0.00 79 1015.5
20260507081505 10 169 3.2 9.7 0.00 0.03 0.00 80 1015.5
20260507081004 10 182 3.2 8.0 0.00 0.03 0.00 79 1015.5
20260507080503 10 155 3.2 8.0 0.00 0.03 0.00 80 1015.5
20260507080005 10 145 3.2 8.0 0.00 0.03 0.00 80 1015.5
20260507075504 10 137 3.2 8.0 0.00 0.03 0.00 80 1015.3
20260507075003 10 145 3.2 8.0 0.00 0.03 0.00 81 1015.3
20260507074503 9 162 3.2 8.0 0.00 0.03 0.00 82 1015.3
20260507074003 9 157 3.2 9.7 0.00 0.03 0.00 83 1015.3
20260507073505 9 162 3.2 9.7 0.00 0.03 0.00 84 1015.3
20260507073003 9 168 3.2 8.0 0.00 0.03 0.00 85 1015.3
20260507072504 9 139 1.6 4.8 0.00 0.03 0.00 86 1015.2
20260507072004 9 96 1.6 4.8 0.00 0.03 0.00 86 1015.2
20260507071504 8 87 3.2 8.0 0.00 0.03 0.00 87 1015.2
20260507071004 8 85 3.2 8.0 0.00 0.03 0.00 87 1015.2
20260507070717 8 87 3.2 8.0 0.00 0.03 0.00 88 1015.2
20260507070006 8 103 3.2 6.4 0.00 0.03 0.00 89 1015.2
20260507065712 8 110 1.6 6.4 0.00 0.03 0.00 89 1015.2
20260507065004 8 106 1.6 4.8 0.00 0.03 0.00 89 1015.2
20260507064504 8 121 3.2 8.0 0.00 0.03 0.00 90 1015.2
20260507064003 8 129 3.2 8.0 0.00 0.03 0.00 90 1015.1
20260507063503 8 123 3.2 8.0 0.00 0.03 0.00 91 1015.1
20260507063004 8 137 1.6 8.0 0.00 0.03 0.00 92 1015.1
20260507062504 8 124 1.6 8.0 0.00 0.03 0.00 92 1015.0
20260507062004 8 100 1.6 8.0 0.00 0.03 0.00 92 1015.0
20260507061503 7 86 1.6 8.0 0.00 0.03 0.00 92 1015.0
20260507061003 7 46 1.6 4.8 0.00 0.03 0.00 93 1015.0
20260507060504 7 10 1.6 4.8 0.00 0.03 0.00 93 1015.0
20260507060004 7 1 1.6 4.8 0.00 0.03 0.00 93 1015.0
20260507055503 6 1 1.6 4.8 0.00 0.03 0.00 93 1014.9
20260507055004 6 1 1.6 4.8 0.00 0.03 0.00 92 1014.9
20260507054504 6 1 1.6 4.8 0.00 0.03 0.00 92 1014.9
20260507054004 6 10 3.2 4.8 0.00 0.03 0.00 92 1014.9
20260507053503 6 43 1.6 4.8 0.00 0.03 0.00 92 1014.9
20260507053218 6 74 1.6 3.2 0.00 0.03 0.00 92 1014.9
20260507052503 6 95 1.6 3.2 0.00 0.03 0.00 91 1014.8
20260507052003 6 95 0.0 3.2 0.00 0.03 0.00 91 1014.8
20260507051503 6 0 0.0 0.0 0.00 0.03 0.00 91 1014.8
20260507051004 6 0 0.0 0.0 0.00 0.03 0.00 91 1014.7
20260507050504 6 0 0.0 0.0 0.00 0.03 0.00 91 1014.7
20260507050005 6 0 0.0 0.0 0.00 0.03 0.00 91 1014.7
20260507045504 6 0 0.0 0.0 0.00 0.03 0.00 91 1014.7
20260507045005 6 0 0.0 0.0 0.00 0.03 0.00 91 1014.7
20260507044715 6 0 0.0 0.0 0.00 0.03 0.00 91 1014.7
20260507044213 6 0 0.0 0.0 0.00 0.03 0.00 91 1014.7
20260507043716 6 0 0.0 0.0 0.00 0.03 0.00 91 1014.7
20260507043003 7 0 0.0 1.6 0.00 0.03 0.00 91 1014.7
20260507042503 7 95 0.0 1.6 0.00 0.03 0.00 91 1014.6
20260507042003 7 95 0.0 3.2 0.00 0.03 0.00 91 1014.6
20260507041504 7 95 1.6 3.2 0.00 0.03 0.00 91 1014.6
20260507041003 7 91 1.6 3.2 0.00 0.03 0.00 91 1014.6
20260507040713 7 88 1.6 3.2 0.00 0.03 0.00 91 1014.6
20260507040217 7 82 1.6 4.8 0.00 0.03 0.00 91 1014.6
20260507035504 7 81 1.6 3.2 0.00 0.03 0.00 91 1014.6
20260507035212 7 79 1.6 6.4 0.00 0.03 0.00 91 1014.6
20260507034504 7 80 3.2 6.4 0.00 0.03 0.00 91 1014.6
20260507034004 7 78 3.2 6.4 0.00 0.03 0.00 91 1014.5
20260507033504 7 77 4.8 8.0 0.00 0.03 0.00 91 1014.5
20260507033004 7 78 3.2 8.0 0.00 0.03 0.00 91 1014.5
20260507032503 7 76 3.2 4.8 0.00 0.03 0.00 91 1014.6
20260507032004 7 74 3.2 8.0 0.00 0.03 0.00 91 1014.6
20260507031504 7 75 1.6 8.0 0.00 0.03 0.00 91 1014.6
20260507031005 7 76 1.6 4.8 0.00 0.03 0.00 91 1014.5
20260507030504 7 79 3.2 6.4 0.00 0.03 0.00 91 1014.5